Regional Weather Roundup
Issued by NWS Newport/Morehead, NC

Home | Current Version | Previous Version | Text Only | Print | Product List | Glossary On
Versions: 1 2 3 4 5 6 7 8 9 10 11 12 13 14 15 16 17 18 19 20 21 22 23 24 25 26 27 28 29 30 31 32 33 34 35 36 37 38 39 40 41 42 43 44 45 46 47 48 49 50
000
ASUS42 KMHX 150125
RWRMHX
WEATHER ROUNDUP FOR EASTERN NORTH CAROLINA
NATIONAL WEATHER SERVICE NEWPORT/MOREHEAD CITY NC
800 PM EST THU DEC 14 2017

NOTE: "FAIR" INDICATES FEW OR NO CLOUDS BELOW 12,000 FEET
WITH NO SIGNIFICANT WEATHER AND/OR OBSTRUCTIONS TO VISIBILITY

NCZ015>017-031-032-045>047-102-103-150200-
NORTH COAST

CITY           SKY/WX    TMP DP  RH WIND       PRES   REMARKS
EDENTON        CLOUDY    43  33  66 NE6       30.02R
ELIZABETH CITY PTCLDY    42  36  79 N12       30.03R
KITTY HAWK     CLOUDY    46  33  61 NE8       30.00R
MANTEO         CLEAR     45  34  66 NE8       30.02R

$$

NCZ045>047-081-094-103-104-150200-
CENTRAL COAST

CITY           SKY/WX    TMP DP  RH WIND       PRES   REMARKS
FRISCO         CLEAR     42  36  79 NE3       29.99R

$$

NCZ095-097-098-100-101-150200-
SOUTHERN COAST

CITY           SKY/WX    TMP DP  RH WIND       PRES   REMARKS
BEAUFORT       CLEAR     42  39  89 CALM      29.99R
CEDAR ISLAND   NOT AVBL
JACKSONVILLE   CLEAR     39  35  86 CALM      29.98R
PINEY ISLAND     N/A    N/A N/A N/A S3        29.98R
WILMINGTON     CLOUDY    43  38  82 CALM      29.98R


$$

NCZ011>013-027>030-043-044-078>080-089-090>093-098-150200-
COASTAL PLAIN

CITY           SKY/WX    TMP DP  RH WIND       PRES   REMARKS
AHOSKIE        PTCLDY    42  29  59 CALM      30.02R
CLINTON        CLEAR     39  35  85 CALM      29.98R
ELIZABETHTOWN  NOT AVBL
GOLDSBORO      CLEAR     39  30  70 E3        29.97R
GREENVILLE     CLEAR     36  32  87 CALM      30.01R
HAVELOCK       CLEAR     41  37  86 CALM      30.00R
KENANSVILLE    CLEAR     36  32  87 CALM      29.98R
KINSTON        CLEAR     34  30  86 CALM      30.00R
NEW BERN       CLEAR     36  33  89 CALM      29.99R
RICHLANDS      CLEAR     37  34  89 CALM      29.99R
ROCKY MOUNT    CLEAR     39  31  72 CALM      30.00R
WASHINGTON     CLEAR     37  32  84 CALM      30.00R
WHITEVILLE     CLOUDY    41  36  81 CALM      29.97R

$$

AMZ130-135-150-152-154-156-158-170-250-252-270-ANZ085-086-088-633-658-670-150200-
MARINE OBSERVATIONS

STATION/POSITION TIME  TEMP    WIND        PRES    WAVE   SWELL
                       AIR SEA DIR/SP/G            HT/PER HT/PER
                 (UTC) (F)     (DEG/KT/KT) (MB)    (FT/S) (FT/S)
CHESAPEAKE LIGHT NOT AVBL
64 E VA BEACH    0050   48 60   10/ 14/ 19 1016.6    5/ 6   2/ 9
DUCK             0100   47 53   40/ 15/ 18 1016.1
2 E DUCK         0100      55                N/A     3/ 5
OREGON INLET     0100   48 42   30/ 10/ 13 1016.0
13E OREGON INLT  0048      63                N/A     4/ 8   3/ 8
HATTERAS CG      0100   48 52   20/  5/  7 1015.3
DIAMOND BUOY     0100   56     350/  8/ 14 1015.5
CAPE LOOKOUT     0100           10/  5/  5 1015.7
BEAUFORT LAB     0100   46 51   20/  3/  4 1015.4
30 SE NEW RVR IN 0108   58 64  270/  6/ 10 1015.1
30 SE NEW RVR IN 0100      64                N/A     5/ 8
27 SE WRIGHTSVLE 0108   58 65  290/ 12/ 16 1015.1
5 SE WRIGHTSVLE  0108   54 56  270/  6/  8 1014.8
225 S CAPE HAT   0050   70 74  260/ 19/ 23 1015.3    8/ 8   3/24
41 SE CHARLESTON 0100      72  250/ 17/ 23 1015.4

$$



USA.gov is the U.S. government's official web portal to all federal, state and local government web resources and services.